Location: Arroyo Retuerta
(40.5469°N, 4.3534°W)
Time: 05:38:31
(UTC+00:00)

Cosmos 1833 Rocket - Pass Details

Date: 01 June 2020
Orbit: 833 x 839 km, 71.0° (Epoch: 05 July)

Event Time Altitude Azimuth Distance (km) Brightness Sun altitude
Rises 21:29:34 0° 326° (NW) 3,388 7.6 -16.3°
Reaches altitude 10° 21:32:15 10° 317° (NW) 2,450 6.5 -16.7°
Maximum altitude 21:37:07 31° 256° (WSW) 1,423 4.1 -17.2°
Enters shadow 21:41:41 11° 198° (SSW) 2,349 4.7 -17.8°
